Vancouver, WA
on Thursday, November 22, 2012

Thursday
Previous Day Next Day
Daily Summary
 ActualAverageRecord
Temperature
Mean Temperature °F / °C 45°F / 7°C  
Max Temperature 50°F / 10°C 51°F / 11°C 62°F / 16°C (1909)
Min Temperature 34°F / 1°C 39°F / 4°C 21°F / -6°C (2013)
Degree Days
Heating Degree Days 23    
Month to date heating degree days 337  
Since 1 July heating degree days 656  
Cooling Degree Days 0    
Month to date cooling degree days 0  
Year to date cooling degree days 398  
Moisture
Dew Point 36°F / 2°C   
Average Humidity 81    
Maximum Humidity 100    
Minimum Humidity 61    
Precipitation
Precipitation 0.00 in / 0.00 cm 0.21 in / 5.33 cm 2.81 in / 7.14 cm (1901)
Month to date precipitation 4.92 4.14  
Year to date precipitation 36.08 30.60  
Snow
Snow 0.00 in / 0.00 cm in / cm in / cm ()
Month to date snowfall 0.0  
Since 1 July snowfall 0.0  
Since 1 September snowfall 0.0  
Snow Depth 0.00 in / 0.00 cm   
Wind
Wind Speed 3 mph / 5 km/h   
Max Wind Speed 9 mph / 14 km/h   
Max Gust Speed 15 mph / 24 km/h   
Visibility 9 miles / 14 kilometers   
Events     

Key: T is trace of precipitation, MM is missing value
Source: NWS Daily Summary
Time(PST)TemperatureDew PointHumidity Pressure Visibility Wind DirectionWind SpeedGust SpeedPrecipitationEvents Conditions
12:53 AM 36.0°F / 2.2°C 35.1°F / 1.7°C 97% 30.35 in / 1027.6 hPa 10.0 miles / 16.1 kilometers Calm Calm - N/A   Clear
1:53 AM 37.9°F / 3.3°C 36.0°F / 2.2°C 93% 30.35 in / 1027.5 hPa 10.0 miles / 16.1 kilometers Calm Calm - N/A   Clear
2:53 AM 36.0°F / 2.2°C 34.0°F / 1.1°C 93% 30.37 in / 1028.2 hPa 10.0 miles / 16.1 kilometers Calm Calm - N/A   Clear
3:53 AM 35.1°F / 1.7°C 33.1°F / 0.6°C 92% 30.37 in / 1028.3 hPa 7.0 miles / 11.3 kilometers Calm Calm - N/A   Clear
4:05 AM 33.8°F / 1.0°C 33.8°F / 1.0°C 100% 30.37 in / 1028.3 hPa 7.0 miles / 11.3 kilometers Calm Calm - N/A   Partly Cloudy
4:53 AM 35.1°F / 1.7°C 34.0°F / 1.1°C 96% 30.37 in / 1028.2 hPa 7.0 miles / 11.3 kilometers Calm Calm - N/A   Clear
5:43 AM 35.6°F / 2.0°C 33.8°F / 1.0°C 93% 30.37 in / 1028.3 hPa 7.0 miles / 11.3 kilometers Calm Calm - N/A   Partly Cloudy
5:53 AM 35.1°F / 1.7°C 34.0°F / 1.1°C 96% 30.37 in / 1028.2 hPa 8.0 miles / 12.9 kilometers Calm Calm - N/A   Clear
6:02 AM 35.6°F / 2.0°C 33.8°F / 1.0°C 93% 30.37 in / 1028.3 hPa 6.0 miles / 9.7 kilometers Calm Calm - N/A   Partly Cloudy
6:21 AM 35.6°F / 2.0°C 35.6°F / 2.0°C 100% 30.37 in / 1028.3 hPa 9.0 miles / 14.5 kilometers Calm Calm - N/A   Mostly Cloudy
6:43 AM 35.6°F / 2.0°C 33.8°F / 1.0°C 93% 30.36 in / 1028.0 hPa 6.0 miles / 9.7 kilometers Calm Calm - N/A   Scattered Clouds
6:53 AM 37.0°F / 2.8°C 35.1°F / 1.7°C 93% 30.37 in / 1028.2 hPa 8.0 miles / 12.9 kilometers Calm Calm - N/A   Partly Cloudy
7:53 AM 37.0°F / 2.8°C 35.1°F / 1.7°C 93% 30.37 in / 1028.2 hPa 7.0 miles / 11.3 kilometers Calm Calm - N/A   Clear
8:53 AM 39.9°F / 4.4°C 37.9°F / 3.3°C 93% 30.37 in / 1028.3 hPa 10.0 miles / 16.1 kilometers NW 3.5 mph / 5.6 km/h - N/A   Scattered Clouds
9:53 AM 43.0°F / 6.1°C 39.9°F / 4.4°C 89% 30.35 in / 1027.8 hPa 10.0 miles / 16.1 kilometers Calm Calm - N/A   Scattered Clouds
10:53 AM 45.0°F / 7.2°C 39.9°F / 4.4°C 82% 30.35 in / 1027.8 hPa 10.0 miles / 16.1 kilometers Calm Calm - N/A   Clear
11:53 AM 46.0°F / 7.8°C 39.9°F / 4.4°C 79% 30.33 in / 1027.1 hPa 10.0 miles / 16.1 kilometers Calm Calm - N/A   Clear
12:53 PM 48.9°F / 9.4°C 39.0°F / 3.9°C 69% 30.30 in / 1026.0 hPa 10.0 miles / 16.1 kilometers ESE 8.1 mph / 13.0 km/h - N/A   Clear
1:53 PM 50.0°F / 10.0°C 37.9°F / 3.3°C 63% 30.31 in / 1026.2 hPa 10.0 miles / 16.1 kilometers SE 5.8 mph / 9.3 km/h - N/A   Clear
2:53 PM 48.9°F / 9.4°C 37.9°F / 3.3°C 66% 30.30 in / 1025.9 hPa 10.0 miles / 16.1 kilometers ESE 6.9 mph / 11.1 km/h - N/A   Clear
3:53 PM 48.9°F / 9.4°C 37.9°F / 3.3°C 66% 30.30 in / 1026.1 hPa 10.0 miles / 16.1 kilometers SE 3.5 mph / 5.6 km/h - N/A   Clear
4:53 PM 48.0°F / 8.9°C 37.0°F / 2.8°C 66% 30.30 in / 1025.9 hPa 10.0 miles / 16.1 kilometers SE 3.5 mph / 5.6 km/h - N/A   Clear
5:53 PM 48.0°F / 8.9°C 37.9°F / 3.3°C 68% 30.29 in / 1025.5 hPa 10.0 miles / 16.1 kilometers ESE 4.6 mph / 7.4 km/h - N/A   Clear
6:53 PM 46.9°F / 8.3°C 37.0°F / 2.8°C 68% 30.27 in / 1025.0 hPa 10.0 miles / 16.1 kilometers SE 5.8 mph / 9.3 km/h - N/A   Clear
7:53 PM 48.0°F / 8.9°C 36.0°F / 2.2°C 63% 30.27 in / 1024.8 hPa 10.0 miles / 16.1 kilometers SE 6.9 mph / 11.1 km/h - N/A   Clear
8:53 PM 48.0°F / 8.9°C 36.0°F / 2.2°C 63% 30.27 in / 1025.0 hPa 10.0 miles / 16.1 kilometers SE 5.8 mph / 9.3 km/h - N/A   Clear
9:53 PM 46.9°F / 8.3°C 36.0°F / 2.2°C 66% 30.27 in / 1024.9 hPa 10.0 miles / 16.1 kilometers SE 6.9 mph / 11.1 km/h - N/A   Clear
10:53 PM 46.9°F / 8.3°C 36.0°F / 2.2°C 66% 30.27 in / 1024.8 hPa 10.0 miles / 16.1 kilometers SE 5.8 mph / 9.3 km/h - N/A   Clear
11:53 PM 46.0°F / 7.8°C 36.0°F / 2.2°C 68% 30.27 in / 1024.9 hPa 10.0 miles / 16.1 kilometers SE 6.9 mph / 11.1 km/h - N/A   Clear
Moon Phase
Nov. 22 Nov. 28 Dec. 06 Dec. 13 Dec. 20
Sunrise:07:20 AM (PST) Moon Rise:01:34 PM (PST)11/22
Sunset:04:33 PM (PST) Moon Set:01:30 AM (PST)11/22

Copyright © 2014 The Weather Underground, Inc.